Weather in Monastirishe

Ukraine / Cherkassi District     48˚59′41″N   29˚48′40″E
temp.,
°C
wind,
m/s
gust,
m/s
humid.,
%
clouds,
%
prec.,
mm/h
press.,
hPa
HPBL,
m
2 december, wed
wed223:00ne3594100 0.0 1027357
02:00ne3595100 0.1 1027276
05:00−1˚nne2497100 0.2 1026230
08:00−1˚ene249899 0.3 1027158
11:00+1˚ene238797 0.1 1027335
14:00+1˚ese127999 0.3 1026454
17:00e1283100 0.1 102625
20:00−1˚se229281 0.1 102730
3 december, thu
thu323:00−1˚sse229317 0.0 102748
02:00sse359551 0.0 1026308
05:00−2˚ese359682 0.0 1026114
08:00−1˚se469474 0.0 1025343
11:00+1˚ese5790100 0.0 1025293
14:00+3˚ese478591 0.0 1024421
17:00+1˚ese489588 0.0 1023289
20:00+3˚ese499794 0.0 1022330
4 december, fri
fri423:00+3˚se5109898 0.0 1022436
02:00+4˚se6119597 0.0 1022436
05:00+4˚sse61093100 0.0 1021598
08:00+3˚se5119098 0.1 1022496
11:00+6˚sse7128788 0.0 1022708
14:00+6˚se7128294 0.0 1021476
17:00+4˚se7128988 0.0 1022449
20:00+3˚se7119489 0.0 1023640
5 december, sat
sat523:00+4˚se61191100 0.0 1023638
02:00+4˚se6118799 0.0 1024628
05:00+4˚se61088100 0.0 1024628
08:00+3˚se71092100 0.0 1025631
11:00+3˚se71087100 0.0 1026636
14:00+4˚se6980100 0.0 1026634
17:00+2˚ese698093 0.0 1026548
20:00ese6118362 0.0 1027483
6 december, sun
sun623:00−1˚se5108921 0.0 1028458
02:00se698160 0.0 1028626
05:00−1˚ese61077100 0.0 1028569
08:00−2˚ese6106994 0.0 1028506
11:00se610621 0.0 1029569
14:00+1˚se710600 0.0 1028668
17:00−1˚ese512670 0.0 1028596
20:00−1˚ese613660 0.0 1028616